Location: Unspecified
(0.0000°N, 0.0000°E)
Time: 23:24:44
(UTC+00:00)

Envisat - Pass Details

Date: 17 January 2022
Orbit: 764 x 766 km, 98.2° (Epoch: 27 January)

Event Time Altitude Azimuth Distance (km) Brightness Sun altitude
Rises 03:28:09 0° 45° (NE) 3,215 6.4 -37.4°
Reaches altitude 10° 03:31:24 10° 67° (ENE) 2,293 5.8 -36.6°
Maximum altitude 03:34:17 15° 103° (ESE) 1,949 5.7 -36.0°
Drops below altitude 10° 03:37:10 10° 138° (SE) 2,299 6.1 -35.3°
Sets 03:40:25 0° 160° (SSE) 3,228 6.8 -34.6°
